SCP
0 0 0 0 0 0 0 0 0 0 0 0 0 0 0 0 0 0 0 0 0 0 0 0 0 0 0 0 0 0 0 0 0 0 0 0 0 0 0 0 0 0 0 0
0 0 0 0 0 0 0 0 0 0 0 0 0 0 0 0 0 0 0 0 0 0 0 0 0 0 0 0 0 0 0 0 0 0 0 0 0 0 0 0 0 0 0 0
0 0 0 0 0 0 0 0 0 0 0 0 0 0 0 0 0 0 0 0 0 0 0 0 0 0 0 0 0 0 0 0 0 0 0 0 0 0 0 0 0 0 0 0
0 0 0 0 0 0 0 0 0 0 0 0 0 -0 -0 -0 0 0 0 0 0 0 0 0 0 0 0 0 0 0 0 0 0 0 0 0 0 0 0 0 0 0 0 0
0 0 0 0 0 0 0 0 0 0 0 -0 -0 -0 -0 0 0 0 0 0 0 0 0 0 0 0 0 0 0 0 0 0 0 0 0 0 0 0 0 0 0 0 0 0
0 0 0 0 0 0 0 0 0 0 0 -0 -0 -0 0 0 0 0 0 0 0 0 0 0 0 0 0 0 0 0 0 0 0 0 0 0 0 0 0 0 0 0 0 0
0 0 0 0 0 0 0 0 0 0 0 0 -0 -0 0 0 0 0 0 0 0 0 0 0 0 0 0 0 0 0 0 0 0 0 0 0 0 0 0 0 0 0 0 0
0 0 0 0 0 0 0 0 0 0 0 0 -0 0 0 0 0 0 0 0 0 0 0 0 0 0 0 0 0 0 0 0 -0 -0 -0 0 0 0 0 0 0 0 0 0
0 0 0 0 0 0 0 0 0 0 0 0 -0 0 0 0 0 0 0 0 0 0 0 0 0 0 0 0 0 0 0 0 -0 -0 0 0 0 0 0 0 0 0 0 0
0 0 0 0 -0 -0 -0 -0 0 0 0 0 0 0 0 0 0 0 0 0 0 0 0 0 0 0 0 0 0 0 0 0 0 0 0 0 0 0 0 0 0 0 0 0
0 0 0 -0 -0 -0 -0 -0 0 0 0 0 0 0 0 0 0 0 0 0 0 0 0 0 0 0 0 0 0 0 0 0 0 0 0 0 0 0 0 0 0 0 0 0
0 0 -0 -0 0 0 -0 -0 0 0 0 0 0 0 0 0 0 0 0 0 0 0 0 0 0 0 0 0 0 0 0 0 0 0 0 0 0 0 0 0 0 0 0 0
0 0 0 -0 -0 0 0 0 0 0 0 0 0 0 0 0 0 0 0 0 0 0 0 0 0 0 0 0 0 0 0 0 0 0 0 0 0 0 0 0 0 0 0 0
0 0 0 0 0 0 0 0 0 0 0 0 0 0 0 0 0 0 0 0 0 0 0 0 0 0 0 0 0 0 0 0 0 0 0 0 0 0 0 0 0 0 0 0
0 0 0 0 0 0 0 0 0 0 0 0 0 -0 -0 0 0 0 0 0 0 0 0 0 0 0 0 0 0 0 0 0 0 0 0 0 0 0 0 0 0 0 0 0
0 0 0 0 0 0 0 0 0 0 0 0 0 0 0 0 0 0 0 0 0 0 0 0 0 0 0 0 0 0 0 0 0 0 0 0 0 0 0 0 0 0 0 0
0 0 0 0 0 0 0 0 0 0 0 0 0 0 0 0 0 0 0 0 0 0 0 0 0 0 0 0 0 0 0 0 0 0 0 0 0 0 0 0 0 0 0 0
0 0 0 0 0 0 0 0 0 0 0 0 0 0 0 0 0 0 0 0 0 0 0 0 0 0 0 0 0 0 0 0 0 0 0 0 0 0 0 0 0 0 0 0
0 0 0 0 0 0 0 0 0 0 0 0 0 0 0 0 0 0 0 0 0 0 0 0 0 0 0 0 0 0 0 0 0 0 0 0 0 0 0 0 0 0 0 0
0 0 0 0 0 0 0 0 0 0 0 0 0 0 0 0 0 0 0 0 0 0 0 0 0 0 0 0 0 0 0 0 0 0 0 0 0 0 0 0 0 0 0 0
0 0 0 0 0 0 0 0 0 0 0 0 0 0 -0 -0 0 0 0 0 0 0 0 0 0 0 0 0 0 0 0 0 0 0 0 0 0 0 0 0 0 0 0 0
0 0 0 0 0 0 0 0 0 0 0 0 0 -0 -0 0 0 0 0 0 0 0 0 0 0 0 0 0 0 0 0 0 0 0 0 0 0 0 0 0 0 0 0 0
0 0 0 0 0 0 0 0 0 0 0 0 -0 -0 -0 0 0 0 0 0 0 0 0 0 0 0 0 0 0 0 0 0 0 0 0 0 0 0 0 0 0 0 0 0
0 0 0 0 0 0 0 0 -0 0 0 0 0 0 0 0 0 0 0 0 0 0 0 0 0 0 0 0 0 0 0 0 0 0 0 0 0 0 0 0 0 0 0 0
0 0 0 0 0 0 0 0 0 0 0 0 0 0 0 0 0 0 0 0 0 0 0 0 0 0 0 0 0 0 0 0 0 0 0 0 0 0 0 0 0 0 0 0
0 0 0 0 0 0 0 0 0 0 0 0 0 0 0 0 0 0 0 0 0 0 0 0 0 0 0 0 0 0 0 0 0 0 0 0 0 0 0 0 0 0 0 0
0 0 0 0 0 0 0 0 0 0 0 0 0 0 0 0 0 0 0 0 0 0 0 0 0 0 0 0 0 0 0 0 0 0 0 0 0 0 0 0 0 0 0 0
Wind_Speed
13 11 7 11 12 11 14 14 15 18 20 24 18 14 12 11 10 10 10 10 9 9 8 8 8 8 8 8 8 8 7 7 7 7 7 7 6 6 6 5 6 7 7 7
10 10 11 18 18 16 18 17 20 22 26 21 16 11 10 10 10 10 10 10 9 9 9 8 8 8 8 8 8 8 7 7 7 6 6 6 5 5 5 5 5 5 7 7
9 5 5 15 14 15 13 12 12 18 21 14 12 12 10 9 8 9 10 10 9 8 8 8 8 7 8 8 8 7 7 7 7 5 6 5 5 5 5 5 5 5 6 7
6 3 15 11 5 9 12 15 14 13 13 11 11 10 8 7 7 9 9 9 8 7 7 7 7 7 7 7 7 7 7 7 6 6 6 5 4 5 6 5 4 5 5 6
5 8 13 10 5 6 8 11 9 12 13 11 7 6 7 6 5 7 8 8 7 6 6 6 7 7 7 7 6 6 7 7 7 6 6 5 5 6 5 5 5 4 4 5
7 7 10 9 3 3 2 9 6 6 8 7 3 4 8 6 5 6 6 6 6 6 6 6 7 6 7 7 7 7 8 8 7 6 5 6 6 6 5 5 5 3 3 4
11 11 12 7 3 5 5 9 3 4 5 5 5 8 8 7 6 6 6 7 6 6 6 6 6 5 6 7 7 8 8 7 7 6 5 6 6 5 5 4 3 2 2 3
7 9 13 5 7 8 9 3 3 4 5 6 8 9 8 7 8 7 7 7 6 6 7 7 6 5 6 7 8 7 7 7 7 6 5 5 5 6 4 3 3 2 2 1
11 11 5 5 7 6 3 5 5 5 6 6 7 8 8 8 8 7 7 7 6 6 8 8 6 5 6 8 8 7 7 7 7 6 5 5 5 5 4 2 2 2 2 1
7 9 6 6 6 6 6 7 7 6 7 6 8 9 9 8 8 7 7 7 6 6 8 9 7 6 6 7 7 7 8 7 7 6 5 4 4 4 3 2 2 1 2 2
8 7 6 7 8 8 7 6 7 7 7 7 8 9 9 8 8 8 8 7 6 6 8 9 8 7 6 6 6 7 7 7 6 5 4 4 4 3 3 3 3 3 2 2
10 7 6 7 5 5 7 8 8 8 8 7 7 9 9 8 8 7 8 7 7 7 8 9 8 8 7 6 5 6 6 6 5 4 4 3 3 4 4 5 6 5 5 4
9 7 7 8 7 5 6 7 7 7 8 9 8 7 8 8 7 7 8 8 8 9 9 8 8 8 7 6 6 6 6 6 5 4 4 3 3 3 4 4 3 3 4 4
6 4 6 7 7 6 6 7 7 7 7 7 7 6 6 7 8 8 8 8 8 8 8 8 8 8 6 6 6 6 6 7 7 4 4 4 3 3 3 3 3 1 0 2
5 5 7 7 6 5 5 5 6 7 7 7 5 6 7 8 9 9 8 8 8 8 8 8 8 8 6 6 7 7 6 5 5 4 4 4 3 3 3 3 2 1 0 1
4 4 4 5 6 6 5 5 6 7 7 7 7 7 7 8 8 9 8 7 7 9 9 8 9 8 6 6 7 6 5 9 8 5 4 3 3 3 3 2 1 1 1 1
3 4 4 5 6 6 5 6 6 7 7 7 8 8 8 8 8 9 8 7 8 9 9 9 9 8 7 6 6 5 5 6 9 6 4 4 3 3 2 2 2 1 1 2
3 4 4 5 6 7 7 7 6 7 7 8 8 7 7 8 9 10 9 9 9 9 8 8 8 8 7 6 5 5 4 4 4 4 4 3 3 2 2 2 2 2 1 1
3 4 4 5 6 6 6 7 7 7 7 7 7 8 8 9 9 10 9 9 10 10 8 6 11 9 7 7 8 5 4 5 5 4 4 5 4 2 2 2 2 2 2 1
4 4 4 5 5 5 5 6 6 6 7 7 7 8 9 9 9 9 9 9 8 7 8 9 9 7 7 7 9 5 5 5 5 4 4 3 3 2 2 2 2 2 2 1
5 5 5 5 6 5 5 5 5 7 7 7 7 9 10 10 9 8 8 9 9 8 8 11 7 6 6 6 8 5 5 5 4 4 4 3 3 2 2 2 2 2 2 2
5 5 5 5 6 6 6 5 5 7 8 8 8 8 9 10 9 9 9 8 9 12 8 6 5 8 9 9 5 4 5 5 4 3 3 3 3 2 2 2 2 2 2 2
5 5 5 5 6 6 7 6 6 6 7 8 9 9 9 9 8 8 9 7 6 11 8 6 9 12 13 7 4 4 4 4 4 4 3 3 3 3 2 2 2 2 2 2
5 5 5 5 5 5 7 7 7 6 7 8 8 9 8 8 7 6 7 11 13 13 7 9 12 12 10 4 3 3 3 3 3 3 3 3 2 2 2 2 2 2 3 3
4 4 4 5 5 5 6 7 7 7 7 6 8 8 7 6 7 8 8 8 11 11 7 8 11 10 5 3 2 3 3 3 3 3 3 2 2 2 2 2 3 3 3 3
4 4 4 4 4 5 5 5 5 6 6 7 7 7 7 6 7 7 6 7 8 9 7 5 5 5 3 2 2 2 2 3 3 2 2 2 2 2 3 3 4 3 3 3
4 3 3 4 4 4 4 5 5 6 6 7 8 8 8 7 7 7 7 6 5 5 4 4 3 3 2 1 1 1 1 1 2 2 2 2 2 3 3 4 3 3 3 4
Wind_Direction
250 255 242 244 244 221 222 230 242 259 265 273 279 282 285 289 291 295 298 300 299 298 300 302 303 303 302 300 299 297 291 284 279 279 280 275 272 274 265 252 244 224 206 207
259 248 248 260 254 240 240 242 247 260 269 270 277 281 282 283 286 291 295 296 297 299 303 304 302 303 305 302 301 302 296 287 285 285 286 276 271 274 270 261 249 229 207 204
264 269 273 259 239 230 232 226 227 247 259 275 283 281 279 280 282 285 288 290 292 295 295 296 297 298 298 296 300 302 299 295 294 290 285 276 276 279 272 264 250 235 216 207
263 264 250 253 205 216 235 245 235 245 261 270 271 281 280 269 273 283 286 288 290 293 296 298 298 302 301 299 301 302 302 304 306 301 293 289 278 274 275 273 259 238 223 207
228 246 266 277 238 198 217 258 239 243 260 271 282 303 288 268 258 264 273 279 279 279 286 294 299 304 308 307 307 309 307 307 307 303 300 300 285 277 276 275 268 239 207 201
225 238 250 254 233 172 135 272 257 229 254 269 286 291 285 290 283 275 279 283 286 290 293 295 298 309 311 308 312 310 306 304 303 300 299 296 286 280 278 272 265 238 218 198
233 244 257 252 186 130 195 253 265 227 249 249 229 240 269 291 287 280 282 285 291 295 293 289 296 307 306 303 303 302 304 303 301 301 297 291 295 287 280 276 269 233 213 202
211 234 251 200 153 191 227 257 261 255 251 248 255 269 280 283 282 287 290 293 295 296 295 296 299 301 298 294 298 304 306 305 300 299 297 297 292 291 283 267 258 218 179 192
207 228 244 181 203 228 242 256 257 256 259 259 269 276 281 282 281 283 283 287 290 288 294 299 300 295 284 292 302 308 308 305 303 298 291 289 289 294 290 268 251 224 179 197
250 259 257 253 258 260 251 252 263 262 266 265 268 275 280 281 282 282 283 284 286 290 294 298 301 295 279 287 298 305 304 302 301 299 299 302 297 288 279 259 252 227 198 199
249 266 282 262 247 254 266 267 267 270 266 263 268 276 275 277 279 279 283 283 283 282 284 289 296 296 295 295 297 299 301 299 302 299 295 298 295 288 284 273 254 246 217 197
242 238 232 256 256 255 262 266 267 276 282 276 267 272 275 275 276 278 279 281 284 283 283 287 292 294 299 299 298 298 304 304 300 299 296 298 304 312 299 282 282 266 249 230
246 258 252 264 274 269 264 271 276 274 272 278 277 272 274 277 281 280 280 281 281 282 284 287 289 292 297 300 298 294 295 298 296 294 292 295 297 299 312 321 304 262 245 235
249 263 269 267 271 280 274 277 279 278 275 275 280 283 282 283 285 283 281 282 282 284 285 287 287 290 294 296 295 292 290 292 290 285 281 282 281 277 277 286 298 300 167 185
261 247 252 274 286 293 292 295 297 296 297 296 292 289 289 288 287 287 288 290 290 288 289 290 290 291 296 293 290 288 287 287 286 281 274 273 274 274 268 268 269 267 121 123
285 282 274 278 286 296 304 301 295 296 299 298 298 295 292 289 289 291 292 292 290 289 290 290 288 291 294 290 289 287 284 287 289 283 274 270 268 269 266 260 255 237 214 177
281 293 298 298 296 297 293 285 282 287 292 293 293 297 300 300 297 295 294 291 285 282 284 284 286 290 290 286 282 281 282 287 288 286 274 263 257 253 255 249 242 236 236 211
249 259 265 269 278 287 292 291 289 290 289 290 295 297 296 294 292 293 297 298 295 289 283 280 283 288 287 283 278 273 273 276 276 275 273 265 259 247 242 244 236 228 236 217
297 288 287 285 281 279 283 288 292 293 294 295 294 292 288 287 288 291 294 294 292 290 291 287 293 293 287 283 283 269 265 267 270 270 268 263 262 243 228 228 228 224 220 214
315 309 302 299 296 289 289 293 296 296 295 295 294 294 294 293 292 293 292 284 275 273 283 288 289 284 280 278 280 268 262 261 261 260 261 255 243 232 223 224 225 218 212 208
315 315 314 310 308 303 296 294 296 297 300 298 294 292 292 293 292 289 288 288 286 282 284 288 287 282 280 278 278 267 260 257 255 249 250 248 236 222 214 212 221 219 204 185
312 313 311 310 309 309 308 304 299 298 300 300 297 295 295 296 296 291 277 271 283 293 293 281 280 282 285 284 271 263 256 250 248 244 240 238 228 218 213 209 207 204 188 172
305 305 307 307 306 305 307 306 302 300 298 298 298 297 295 293 292 292 294 289 289 294 295 280 282 287 290 281 262 251 246 243 241 239 234 230 224 213 204 201 194 180 164 151
308 309 308 308 310 311 312 312 310 305 299 297 295 295 294 296 294 283 278 292 299 300 294 291 294 295 292 274 255 246 240 239 236 232 228 220 211 199 190 179 165 152 142 139
308 308 311 317 319 311 306 310 313 310 308 305 302 301 296 286 286 293 293 293 300 304 301 300 301 302 297 272 249 242 237 237 232 221 215 196 189 185 175 159 146 143 138 135
314 313 308 302 298 301 305 308 309 310 312 313 313 313 310 305 299 298 300 300 301 306 305 303 303 300 293 279 260 247 236 235 232 215 192 184 179 171 152 140 139 138 134 133
319 317 318 319 318 313 309 307 307 309 312 312 312 313 315 315 315 317 316 313 315 316 316 312 312 312 311 307 296 271 244 215 193 178 172 171 162 145 137 135 133 132 133 135